This is the latest recevied weather packets stored in our database for station/object K42C. If no packets are shown the sender has not sent any weather packets the latest 10 day(s).
| Time | Temp. | Humidity | Pressure | Rain* | Wind** | Luminosity | Snow |
|---|---|---|---|---|---|---|---|
| 1777403707 | 13.33° C | 76% | 975.1 hPa | 0 mm | 0 m/s | - | - |
| 1777403310 | 12.78° C | 76% | 975.2 hPa | 0 mm | 0 m/s | - | - |
| 1777402909 | 12.78° C | 78% | 974.9 hPa | 0 mm | 0 m/s | - | - |
| 1777402512 | 12.22° C | 80% | 975 hPa | 0 mm | 0 m/s | - | - |
| 1777402111 | 12.22° C | 78% | 974.8 hPa | 0 mm | 0 m/s | - | - |
| 1777401714 | 12.22° C | 81% | 974.8 hPa | 0 mm | 0 m/s | - | - |
| 1777401314 | 11.67° C | 82% | 974.9 hPa | 0 mm | 0 m/s | - | - |
| 1777400917 | 12.22° C | 81% | 974.9 hPa | 0 mm | 0 m/s | - | - |
| 1777400516 | 12.22° C | 81% | 974.9 hPa | 0 mm | 0 m/s | - | - |
| 1777400119 | 12.22° C | 83% | 974.7 hPa | 0 mm | 0 m/s | - | - |
| 1777399718 | 11.67° C | 85% | 974.8 hPa | 0 mm | 0 m/s | - | - |
| 1777399321 | 11.67° C | 84% | 974.7 hPa | 0 mm | 0 m/s | - | - |
| 1777398921 | 11.67° C | 83% | 974.5 hPa | 0 mm | 0 m/s | - | - |
| 1777398524 | 11.67° C | 85% | 974.5 hPa | 0 mm | 0 m/s | - | - |
| 1777398123 | 11.67° C | 85% | 974.3 hPa | 0 mm | 0 m/s | - | - |
| 1777397726 | 11.67° C | 85% | 974.1 hPa | 0 mm | 0 m/s | - | - |
| 1777397325 | 12.22° C | 85% | 974.1 hPa | 0 mm | 0 m/s | - | - |
| 1777396928 | 12.22° C | 86% | 974 hPa | 0 mm | 0 m/s | - | - |
| 1777396528 | 11.67° C | 84% | 973.9 hPa | 0 mm | 0 m/s | - | - |
| 1777396131 | 11.67° C | 86% | 973.8 hPa | 0 mm | 0 m/s | - | - |
| 1777395730 | 11.67° C | 87% | 973.7 hPa | 0 mm | 0 m/s | - | - |
| 1777395333 | 11.67° C | 88% | 973.7 hPa | 0 mm | 0 m/s | - | - |
| 1777394933 | 11.67° C | 89% | 973.8 hPa | 0 mm | 0 m/s | - | - |
| 1777394535 | 11.67° C | 88% | 973.7 hPa | 0 mm | 0 m/s | - | - |
| 1777394135 | 11.11° C | 90% | 973.8 hPa | 0 mm | 0 m/s | - | - |
* Rain latest hour (hover to see other rain measurements)
** Current wind speed in m/s (hover to see current wind gust speed)